| DS18B20 | SHTC3 | ||||||
|---|---|---|---|---|---|---|---|
| ID | Date d/m/Y & Time | data1 สูง | data2 ต่ำ | data3 นอก | temp pcb | hum pcb | Time |
| 7764 | 01/04/2026 09:11:49 | 28.8  | 28.2  | 30.1  | 28.4  | 71.2  | 09:11 |
| 7763 | 01/04/2026 09:07:07 | 28.6  | 28.2  | 30.2  | 28.3  | 71.5  | 09:07 |
| 7762 | 01/04/2026 09:02:25 | 28.5  | 28.1  | 29.9  | 28.1  | 71.6  | 09:02 |
| 7761 | 01/04/2026 08:57:43 | 28.4  | 28.1  | 29.7  | 28.1  | 71.7  | 08:57 |
| 7760 | 01/04/2026 08:53:01 | 28.2  | 28.0  | 29.3  | 28.0  | 71.8  | 08:53 |
| 7759 | 01/04/2026 08:48:17 | 28.2  | 27.9  | 29.4  | 28.1  | 71.8  | 08:48 |
| 7758 | 01/04/2026 08:43:35 | 28.1  | 27.9  | 29.2  | 27.8  | 72.1  | 08:43 |
| 7757 | 01/04/2026 08:38:53 | 27.9  | 27.9  | 28.9  | 27.7  | 72.2  | 08:38 |
| 7756 | 01/04/2026 08:34:11 | 27.9  | 27.8  | 28.7  | 27.7  | 72.3  | 08:34 |
| 7755 | 01/04/2026 08:29:28 | 27.8  | 27.8  | 28.6  | 27.7  | 72.2  | 08:29 |
| 7754 | 01/04/2026 08:24:46 | 27.8  | 27.8  | 28.6  | 27.6  | 72.3  | 08:24 |
| 7753 | 01/04/2026 08:20:03 | 27.8  | 27.7  | 28.7  | 27.7  | 72.5  | 08:20 |
| 7752 | 01/04/2026 08:15:21 | 27.8  | 27.6  | 28.4  | 27.6  | 72.6  | 08:15 |
| 7751 | 01/04/2026 08:10:39 | 27.7  | 27.6  | 28.2  | 27.6  | 72.7  | 08:10 |
| 7750 | 01/04/2026 08:05:58 | 27.7  | 27.6  | 27.7  | 27.2  | 72.7  | 08:05 |
| 7749 | 01/04/2026 08:01:16 | 27.7  | 27.6  | 27.5  | 27.6  | 72.9  | 08:01 |
| 7748 | 01/04/2026 07:56:34 | 27.6  | 27.6  | 27.4  | 27.4  | 72.9  | 07:56 |
| 7747 | 01/04/2026 07:51:52 | 27.6  | 27.6  | 27.2  | 27.5  | 72.9  | 07:51 |
| 7746 | 01/04/2026 07:47:11 | 27.6  | 27.6  | 27.0  | 27.4  | 72.9  | 07:47 |
| 7745 | 01/04/2026 07:42:29 | 27.6  | 27.5  | 26.9  | 27.4  | 72.9  | 07:42 |
| 7744 | 01/04/2026 07:37:47 | 27.6  | 27.6  | 26.9  | 27.5  | 73.1  | 07:37 |
| 7743 | 01/04/2026 07:33:06 | 27.6  | 27.6  | 26.7  | 27.6  | 73.0  | 07:33 |
| 7742 | 01/04/2026 07:28:23 | 27.6  | 27.6  | 26.7  | 27.3  | 73.1  | 07:28 |
| 7741 | 01/04/2026 07:23:42 | 27.6  | 27.5  | 26.5  | 27.4  | 73.2  | 07:23 |